Participated 1 time
in 1914
René Cottrel, France
Tour de France 2026 starts from Barcelona, Spain in

Stats and Facts from
Tour de France.

2026   2025   2024   2023  2022  2021  2020  2019   2018  2017   2016   2015  2014  2013   2012   2011  2010   2009   2008   2007   2006   2005   2004   2003   2002   2001   2000   1999   1998   1997  1996   1995   1994   1993   1992  1991   1990   1989   1988   1987   1986   1985   1984   1983  1982  1981   1980   1979  1978  1977   1976  1975  1974  1973   1972   1971   1970  1969   1968   1967   1966   1965  1964  1963   1962   1961   1960   1959   1958   1957  1956   1955   1954   1953   1952  1951  1950  1949   1948  1947  1939   1938   1937   1936   1935   1934   1933  1932   1931   1930  1929   1928   1927   1926  1925  1924  1923   1922   1921   1920   1919  1914   1913   1912   1911   1910  1909   1908   1907   1906  1905  1904   1903 

Tourstats
Sitemap

After stage 21 - 2025:
 16451 starters.
  5464 different riders.
  689 teams.
  2398 stages.
  470 restdays.
  466506.50 km.
  5925 abandoned riders.

Click map for 1952 route.
Facts from Tour de France 1952 Additional info and images from 1952.
  |   Stages.  |   Stage winners.  |   Days in jerseys.  |   Teams.  |   All riders.  |   All riders by age.  |   All riders from.  |  

  |   Rookies.  |   Withdrawls.  |   Average speed.  |   GC.  |   Polka  |   Green  |   White  |   Summits. (In tour)  |   Miscellaneous.  |  

Stage 19 on July 15th. 1952
Pick a stage:  1  2  3  4  5  6  7  8  9  10  11  12  13  14  15  16  17  18  19  20  21  22  23  

After stage 19:    Fausto Coppi  
  PauBordeaux | Dist: 195.00km. | Winner: Hans Dekkers

Podium

Average speed for all riders in stage:  36,406 km./hr.

1
 Hans Dekkers  Holland05h 15' 16"=37,111  km/h

2
 Gerrit Voorting  Holland05h 15' 25"+  00:00:09 =37,094  km/h

3
 Pierre Pardoën  Nord Est-Centre05h 15' 25"+  00:00:09 =37,094  km/h

4  Henk Faanhof  Holland05h 17' 01"+  00:01:45 =36,907  km/h

5  Vincent Vitetta  Sud Est05h 17' 01"+  00:01:45 =36,907  km/h

6  Paul Giguet  Sud Est05h 17' 01"+  00:01:45 =36,907  km/h

7  André Rosseel  Belgium05h 17' 01"+  00:01:45 =36,907  km/h

8  Settimo Sabbadini  Ouest-Sud Ouest05h 17' 01"+  00:01:45 =36,907  km/h

9  Marcel Fernandez  North Africa05h 17' 01"+  00:01:45 =36,907  km/h

10  Ahmed Kebaïli  North Africa05h 17' 01"+  00:01:45 =36,907  km/h

11  Wout Wagtmans  Holland05h 17' 01"+  00:01:45 =36,907  km/h

12  Jacques Vivier  Ouest-Sud Ouest05h 17' 01"+  00:01:45 =36,907  km/h

13  Eduard Van Ende  Belgium05h 17' 35"+  00:02:19 =36,841  km/h

14  Adolphe Deledda  Nord Est-Centre05h 18' 02"+  00:02:46 =36,789  km/h

15  Gottfried Weilenmann  Switzerland05h 18' 02"+  00:02:46 =36,789  km/h

16  Georges Decaux  Paris05h 18' 02"+  00:02:46 =36,789  km/h

17  Hein Van Breenen  Holland05h 18' 02"+  00:02:46 =36,789  km/h

18  Jacques Marinelli  Paris05h 18' 25"+  00:03:09 =36,744  km/h

19  Wim van Est  Holland05h 18' 25"+  00:03:09 =36,744  km/h

20  Jan Nolten  Holland05h 18' 25"+  00:03:09 =36,744  km/h

21  Walter Diggelmann  Switzerland05h 18' 50"+  00:03:34 =36,696  km/h

22  Siro Bianchi  Sud Est05h 18' 50"+  00:03:34 =36,696  km/h

23  Jacques Renaud  Paris05h 18' 50"+  00:03:34 =36,696  km/h

24  Eugène Telotte  Paris05h 18' 50"+  00:03:34 =36,696  km/h

25  Alois De Hertog  Belgium05h 18' 50"+  00:03:34 =36,696  km/h

26  Giuseppe Mirando  Sud Est05h 18' 50"+  00:03:34 =36,696  km/h

27  Gilbert Bauvin  Nord Est-Centre05h 18' 50"+  00:03:34 =36,696  km/h

28  Roger Rossinelli  Nord Est-Centre05h 21' 29"+  00:06:13 =36,394  km/h

29  Carlo Lafranchi  Switzerland05h 21' 30"+  00:06:14 =36,392  km/h

30  Antonin Rolland  France05h 22' 21"+  00:07:05 =36,296  km/h

31  Jean Robic  France05h 22' 21"+  00:07:05 =36,296  km/h

32  Raphaël Geminiani  France05h 22' 21"+  00:07:05 =36,296  km/h

33  Ettore Milano  Italy05h 22' 21"+  00:07:05 =36,296  km/h

34  Raoul Remy  France05h 22' 21"+  00:07:05 =36,296  km/h

35  Fausto Coppi  Italy05h 22' 21"+  00:07:05 =36,296  km/h

36  Stan Ockers  Belgium05h 22' 21"+  00:07:05 =36,296  km/h

37  Lucien Teisseire  France05h 22' 21"+  00:07:05 =36,296  km/h

38  Gino Bartali  Italy05h 22' 21"+  00:07:05 =36,296  km/h

39  Robert Bonnaventure  France05h 22' 21"+  00:07:05 =36,296  km/h

40  Jean Goldschmit  Luxembourg05h 22' 21"+  00:07:05 =36,296  km/h

41  Johny Goedert  Luxembourg05h 22' 21"+  00:07:05 =36,296  km/h

42  Jean Bertaina  Sud Est05h 22' 21"+  00:07:05 =36,296  km/h

42  Jean-Baptiste Dotto  France05h 22' 21"+  00:07:05 =36,296  km/h

42  Bernard Gauthier  France05h 22' 21"+  00:07:05 =36,296  km/h

42  Bernardo Ruíz  Spain05h 22' 21"+  00:07:05 =36,296  km/h

42  Maurice Quentin  France05h 22' 21"+  00:07:05 =36,296  km/h

42  Alexandre Close  Belgium05h 22' 21"+  00:07:05 =36,296  km/h

42  Mario Baroni  Italy05h 22' 21"+  00:07:05 =36,296  km/h

42  Nello Lauredi  France05h 22' 21"+  00:07:05 =36,296  km/h

42  Jean Le Guilly  Ouest-Sud Ouest05h 22' 21"+  00:07:05 =36,296  km/h

42  Antonio Gelabert  Spain05h 22' 21"+  00:07:05 =36,296  km/h

42  Luciano Pezzi  Italy05h 22' 21"+  00:07:05 =36,296  km/h

42  Thijs Roks  Holland05h 22' 21"+  00:07:05 =36,296  km/h

42  Giovanni Corrieri  Italy05h 22' 21"+  00:07:05 =36,296  km/h

42  Rene Rotta  Sud Est05h 22' 21"+  00:07:05 =36,296  km/h

42  Marcel Zelasco  North Africa05h 22' 21"+  00:07:05 =36,296  km/h

42  Heinrich Spuhler  Switzerland05h 22' 21"+  00:07:05 =36,296  km/h

42  Roger Decock  Belgium05h 22' 21"+  00:07:05 =36,296  km/h

42  Maurice Neyt  Belgium05h 22' 21"+  00:07:05 =36,296  km/h

42  Giulio Bresci  Italy05h 22' 21"+  00:07:05 =36,296  km/h

42  Andrea Carrea  Italy05h 22' 21"+  00:07:05 =36,296  km/h

42  Fiorenzo Crippa  Italy05h 22' 21"+  00:07:05 =36,296  km/h

42  Franco Franchi  Italy05h 22' 21"+  00:07:05 =36,296  km/h

42  Alfredo Martini  Italy05h 22' 21"+  00:07:05 =36,296  km/h

42  Jean De Gribaldy  Nord Est-Centre05h 22' 21"+  00:07:05 =36,296  km/h

42  Noel Lajoie  Nord Est-Centre05h 22' 21"+  00:07:05 =36,296  km/h

42  Adolphe Pezzuli  Sud Est05h 22' 21"+  00:07:05 =36,296  km/h

42  Fiorenzo Magni  Italy05h 22' 21"+  00:07:05 =36,296  km/h

69  Andrès Trobat  Spain05h 25' 26"+  00:10:10 =35,952  km/h

70  Francisco Masip  Spain05h 25' 26"+  00:10:10 =35,952  km/h

71  José Serra Gil  Spain05h 25' 26"+  00:10:10 =35,952  km/h

72  José Gil Sole  Spain05h 25' 26"+  00:10:10 =35,952  km/h

73  Vincent Soler  North Africa05h 25' 26"+  00:10:10 =35,952  km/h

74  Henri Paret  North Africa05h 25' 26"+  00:10:10 =35,952  km/h

75  Jean Delahaye  Ouest-Sud Ouest05h 30' 59"+  00:15:43 =35,349  km/h

76  Jean Malléjac  Ouest-Sud Ouest05h 30' 59"+  00:15:43 =35,349  km/h

77  André Bernard  Ouest-Sud Ouest05h 30' 59"+  00:15:43 =35,349  km/h

78  Raymond Scardin  Ouest-Sud Ouest05h 30' 59"+  00:15:43 =35,349  km/h


Todays birthdays.

1889 • Adolphe Landon
1890 • Jules Lebreton
1904 • Julien Grujon
1909 • Erich Metze
1926 • Giovanni Rossi
1928 • Serge Blusson
1928 • Alois Vansteenkiste
1931 • André Dupré
1934 • Alfred Rüegg
1962 • Francisco Espinosa
1962 • Paul Kimmage
1963 • Federico Muñoz
1966 • Andrea Tafi
1971 • Emmanuel Magnien
1973 • Paolo Savoldelli
1985 • Mikhail Ignatyev

 

Optimized for Chrome - Edge
and Opera browsers.